sat.trackr.live / text

‹ back to catalog

ORBCOMM FM04

NORAD 25159 · 1998-007C

PAYLOAD ACTIVE UNKNOWN

§ Identity

Operator
Country
ORB
Launch date
1998-02-10
Launch site
AFWTR
Launch vehicle
Mass (kg)
RCS (m²)
0.88

Purposes: comms

External: N2YO · Heavens-Above · Gunter

§ Orbital elements

Epoch: 2026-05-25T04:37:27.647904Z

Period
100.30 min
Inclination
107.9624°
Eccentricity
0.0040545
Mean motion
14.35689024 rev/d
Perigee alt
743.8 km
Apogee alt
801.8 km
Semi-major
7,150.9 km
B*
3.3089e-4
RAAN
122.0959°
Arg perigee
4.5562°
Mean anomaly
355.5941°
Rev number
47,329

§ Raw data

ORBCOMM FM041 25159U 98007C   26145.19268111  .00000833  00000+0  33089-3 0  99922 25159 107.9624 122.0959 0040545   4.5562 355.5941 14.35689024473290

JSON: /api/v1/satellites/25159 · /tle

For live sub-satellite position, see the globe view (requires WebGL).

§ Visibility from observer

Set your observer location to see the next 7 days of passes ≥ 10°. The values pass through the URL so the page stays shareable.

No JS? Fill the form by hand. The geolocation button needs JavaScript.